,,PA_Meas_PMT16A,,PR_Meas_QMR101_102,,RH_Meas_QMH101,,SR_Meas_QMS101,,TA_Meas_QMH101,,GenWind,,GenWind,
time,status,PA,status,PR,status,RH,status,SR,status,TA,status,DirAvg,status,SpdAvg,
2016-02-26, 07:50:04,VALID,920.372,VALID,0,VALID,79.1616,VALID,118.615,VALID,21.0486,VALID,97,VALID,2.09336,
2016-02-26, 07:53:04,VALID,920.408,VALID,0,VALID,79.5046,VALID,118.078,VALID,21.1445,VALID,142,VALID,1.79219,
2016-02-26, 07:55:04,VALID,920.421,VALID,0,VALID,80.0459,VALID,222.081,VALID,21.164,VALID,62,VALID,2.21641,
2016-02-26, 07:56:04,VALID,920.468,VALID,0,VALID,79.2988,VALID,135.376,VALID,21.2226,VALID,111,VALID,0.620313,
2016-02-26, 07:57:04,VALID,920.461,VALID,0,VALID,79.5122,VALID,125.384,VALID,21.3201,VALID,79,VALID,0,
2016-02-26, 07:58:04,VALID,920.473,VALID,0,VALID,78.9252,VALID,193.609,VALID,21.3591,VALID,111,VALID,0.810547,
2016-02-26, 07:59:04,VALID,920.502,VALID,0,VALID,78.5745,VALID,303.199,VALID,21.4177,VALID,164,VALID,1.28281,
2016-02-26, 08:00:04,VALID,920.477,VALID,0,VALID,77.3243,VALID,129.467,VALID,21.4583,VALID,137,VALID,2.87305,
2016-02-26, 08:01:04,VALID,920.469,VALID,0,VALID,77.7436,VALID,149.988,VALID,21.4372,VALID,127,VALID,1.66406,
2016-02-26, 08:02:04,VALID,920.539,VALID,0,VALID,78.9557,VALID,105.615,VALID,21.4567,VALID,105,VALID,0.467969,
2016-02-26, 08:04:04,VALID,920.57,VALID,0,VALID,77.0499,VALID,134.946,VALID,21.4973,VALID,124,VALID,1.74922,
2016-02-26, 08:05:04,VALID,920.555,VALID,0,VALID,77.3777,VALID,156.864,VALID,21.4973,VALID,151,VALID,1.01758,
2016-02-26, 08:06:04,VALID,920.533,VALID,0,VALID,77.0651,VALID,114.64,VALID,21.5168,VALID,146,VALID,1.50508,
2016-02-26, 08:07:04,VALID,920.536,VALID,0,VALID,78.262,VALID,112.706,VALID,21.5168,VALID,62,VALID,1.90039,
2016-02-26, 08:08:04,VALID,920.51,VALID,0,VALID,77.1185,VALID,341.341,VALID,21.5363,VALID,132,VALID,2.26289,
2016-02-26, 08:09:04,VALID,920.499,VALID,0,VALID,77.4996,VALID,281.173,VALID,21.6144,VALID,133,VALID,1.325,
2016-02-26, 08:10:04,VALID,920.513,VALID,0,VALID,78.2849,VALID,130.004,VALID,21.7298,VALID,102,VALID,0.789063,
2016-02-26, 08:11:04,VALID,920.495,VALID,0,VALID,78.1324,VALID,132.905,VALID,21.8876,VALID,85,VALID,0,
2016-02-26, 08:12:04,VALID,920.491,VALID,0,VALID,75.9978,VALID,123.665,VALID,21.8876,VALID,141,VALID,1.91367,
2016-02-26, 08:13:04,VALID,920.515,VALID,0,VALID,76.4934,VALID,122.698,VALID,21.829,VALID,97,VALID,1.54961,
2016-02-26, 08:14:04,VALID,920.497,VALID,0,VALID,75.7158,VALID,137.847,VALID,21.7688,VALID,100,VALID,2.04961,
2016-02-26, 08:15:04,VALID,920.531,VALID,0,VALID,76.6839,VALID,348.861,VALID,21.7688,VALID,85,VALID,2.44258,
2016-02-26, 08:16:04,VALID,920.536,VALID,0,VALID,76.3714,VALID,186.948,VALID,21.829,VALID,81,VALID,2.02578,
2016-02-26, 08:17:04,VALID,920.571,VALID,0,VALID,76.4705,VALID,180.286,VALID,21.8681,VALID,141,VALID,1.60859,
2016-02-26, 08:18:04,VALID,920.557,VALID,0,VALID,75.1898,VALID,137.31,VALID,21.8485,VALID,154,VALID,1.14609,
2016-02-26, 08:19:04,VALID,920.589,VALID,0,VALID,77.6902,VALID,145.583,VALID,21.8859,VALID,111,VALID,0,
2016-02-26, 08:20:04,VALID,920.561,VALID,0,VALID,74.8086,VALID,125.706,VALID,21.9071,VALID,131,VALID,1.03398,
2016-02-26, 08:21:04,VALID,920.531,VALID,0,VALID,76.2113,VALID,119.045,VALID,21.8664,VALID,76,VALID,2.3625,
2016-02-26, 08:22:04,VALID,920.575,VALID,0,VALID,75.3346,VALID,108.408,VALID,21.8469,VALID,128,VALID,0.649219,
2016-02-26, 08:23:04,VALID,920.555,VALID,0,VALID,75.5023,VALID,266.024,VALID,21.8079,VALID,84,VALID,1.14922,
2016-02-26, 08:24:04,VALID,920.561,VALID,0,VALID,74.7628,VALID,175.451,VALID,21.8859,VALID,187,VALID,0.472266,
2016-02-26, 08:25:04,VALID,920.571,VALID,0,VALID,75.9368,VALID,286.116,VALID,21.964,VALID,113,VALID,0,
2016-02-26, 08:26:04,VALID,920.557,VALID,0,VALID,74.3054,VALID,138.814,VALID,22.003,VALID,146,VALID,1.57344,
2016-02-26, 08:27:04,VALID,920.575,VALID,0,VALID,74.6942,VALID,139.136,VALID,21.964,VALID,134,VALID,0.0289063,
2016-02-26, 08:28:04,VALID,920.586,VALID,0,VALID,75.548,VALID,155.252,VALID,21.9623,VALID,80,VALID,2.33047,
2016-02-26, 08:29:04,VALID,920.627,VALID,0,VALID,75.4108,VALID,262.479,VALID,21.9444,VALID,118,VALID,1.30156,
2016-02-26, 08:30:04,VALID,920.586,VALID,0,VALID,74.9915,VALID,196.295,VALID,21.9835,VALID,124,VALID,0,
2016-02-26, 08:31:04,VALID,920.625,VALID,0,VALID,76.3561,VALID,159.335,VALID,22.0208,VALID,101,VALID,0.487891,
2016-02-26, 08:32:04,VALID,920.616,VALID,0,VALID,75.1593,VALID,155.36,VALID,22.0615,VALID,155,VALID,0.100781,
2016-02-26, 08:33:04,VALID,920.632,VALID,0,VALID,74.2444,VALID,169.005,VALID,22.042,VALID,130,VALID,0.966016,
2016-02-26, 08:34:04,VALID,920.638,VALID,0,VALID,74.7857,VALID,203.494,VALID,22.0208,VALID,152,VALID,0.221094,
2016-02-26, 08:35:04,VALID,920.671,VALID,0,VALID,75.7996,VALID,178.352,VALID,22.081,VALID,122,VALID,0,
2016-02-26, 08:36:04,VALID,920.71,VALID,0,VALID,75.5099,VALID,190.171,VALID,22.1574,VALID,124,VALID,0,
2016-02-26, 08:37:04,VALID,920.703,VALID,0,VALID,74.435,VALID,187.807,VALID,22.2957,VALID,94,VALID,0,
2016-02-26, 08:38:04,VALID,920.7,VALID,0,VALID,73.6803,VALID,254.098,VALID,22.4111,VALID,34,VALID,0.421094,
2016-02-26, 08:39:04,VALID,920.73,VALID,0,VALID,73.2305,VALID,193.287,VALID,22.5494,VALID,79,VALID,0,
2016-02-26, 08:40:04,VALID,920.75,VALID,0,VALID,72.3233,VALID,197.477,VALID,22.5086,VALID,134,VALID,0.660156,
2016-02-26, 08:41:04,VALID,920.792,VALID,0,VALID,72.27,VALID,236.048,VALID,22.5103,VALID,102,VALID,0.00195313,
2016-02-26, 08:42:04,VALID,920.786,VALID,0,VALID,73.6651,VALID,193.824,VALID,22.5086,VALID,75,VALID,1.57734,
2016-02-26, 08:43:04,VALID,920.738,VALID,0,VALID,68.9462,VALID,176.311,VALID,22.4501,VALID,12,VALID,3.10977,
2016-02-26, 08:44:04,VALID,920.833,VALID,0,VALID,71.1951,VALID,228.957,VALID,22.4501,VALID,108,VALID,0.758984,
2016-02-26, 08:45:04,VALID,920.774,VALID,0,VALID,70.1812,VALID,222.511,VALID,22.4306,VALID,65,VALID,2.52383,
2016-02-26, 08:46:04,VALID,920.821,VALID,0,VALID,72.6893,VALID,307.067,VALID,22.3916,VALID,114,VALID,1.17969,
2016-02-26, 08:47:04,VALID,920.846,VALID,0,VALID,72.5749,VALID,217.783,VALID,22.4306,VALID,139,VALID,0.891406,
2016-02-26, 08:48:04,VALID,920.805,VALID,0,VALID,73.6193,VALID,261.404,VALID,22.4306,VALID,140,VALID,1.82227,
2016-02-26, 08:49:04,VALID,920.863,VALID,0,VALID,71.5305,VALID,348.324,VALID,22.4696,VALID,125,VALID,2.1668,
2016-02-26, 08:50:04,VALID,920.876,VALID,0,VALID,71.4771,VALID,230.676,VALID,22.5867,VALID,110,VALID,2.25859,
2016-02-26, 08:51:04,VALID,920.829,VALID,0,VALID,72.6664,VALID,210.262,VALID,22.5867,VALID,63,VALID,2.80938,
2016-02-26, 08:52:04,VALID,920.885,VALID,0,VALID,70.974,VALID,247.974,VALID,22.5477,VALID,76,VALID,2.8293,
2016-02-26, 08:53:04,VALID,920.909,VALID,0,VALID,71.4848,VALID,214.453,VALID,22.4891,VALID,102,VALID,3.22734,
2016-02-26, 08:54:04,VALID,920.909,VALID,0,VALID,72.7579,VALID,208.973,VALID,22.4696,VALID,69,VALID,2.43008,
2016-02-26, 08:55:04,VALID,920.943,VALID,0,VALID,71.8812,VALID,218.858,VALID,22.4501,VALID,81,VALID,2.2082,
2016-02-26, 08:56:04,VALID,920.917,VALID,0,VALID,71.0884,VALID,231.106,VALID,22.4111,VALID,125,VALID,0,
2016-02-26, 08:57:04,VALID,920.917,VALID,0,VALID,71.5229,VALID,260.867,VALID,22.4094,VALID,119,VALID,0.933594,
2016-02-26, 08:58:04,VALID,920.959,VALID,0,VALID,71.6296,VALID,441.798,VALID,22.4891,VALID,107,VALID,1.26289,
2016-02-26, 08:59:04,VALID,920.963,VALID,0,VALID,73.4059,VALID,254.421,VALID,22.5867,VALID,89,VALID,0.884375,
2016-02-26, 09:00:04,VALID,920.958,VALID,0,VALID,70.8596,VALID,239.809,VALID,22.6257,VALID,62,VALID,2.19023,
2016-02-26, 09:01:04,VALID,920.945,VALID,0,VALID,71.3323,VALID,256.677,VALID,22.6452,VALID,101,VALID,0.0210938,
2016-02-26, 09:02:04,VALID,920.948,VALID,0,VALID,72.6512,VALID,350.151,VALID,22.6045,VALID,90,VALID,1.36445,
2016-02-26, 09:03:04,VALID,920.942,VALID,0,VALID,72.9332,VALID,303.521,VALID,22.6435,VALID,79,VALID,2.18555,
2016-02-26, 09:04:04,VALID,920.879,VALID,0,VALID,70.852,VALID,271.289,VALID,22.7606,VALID,50,VALID,2.97578,
2016-02-26, 09:05:04,VALID,920.925,VALID,0,VALID,69.7924,VALID,267.099,VALID,22.8404,VALID,92,VALID,1.50664,
2016-02-26, 09:06:04,VALID,920.91,VALID,0,VALID,70.9969,VALID,170.724,VALID,22.8209,VALID,123,VALID,0.330469,
2016-02-26, 09:07:04,VALID,920.907,VALID,0,VALID,71.1265,VALID,123.665,VALID,22.7411,VALID,115,VALID,0.877344,
2016-02-26, 09:08:04,VALID,920.889,VALID,0,VALID,71.7135,VALID,136.128,VALID,22.7216,VALID,66,VALID,0.610937,
2016-02-26, 09:09:04,VALID,920.905,VALID,0,VALID,72.8494,VALID,160.195,VALID,22.663,VALID,115,VALID,0.225781,
2016-02-26, 09:10:04,VALID,920.874,VALID,0,VALID,70.3641,VALID,157.294,VALID,22.6062,VALID,57,VALID,2.70937,
2016-02-26, 09:11:04,VALID,920.955,VALID,0,VALID,71.1722,VALID,160.087,VALID,22.585,VALID,95,VALID,2.07539,
2016-02-26, 09:12:04,VALID,920.905,VALID,0,VALID,71.7516,VALID,138.921,VALID,22.4679,VALID,95,VALID,1.04336,
2016-02-26, 09:13:04,VALID,920.906,VALID,0,VALID,72.2319,VALID,129.789,VALID,22.4094,VALID,80,VALID,0.321484,
2016-02-26, 09:14:04,VALID,920.942,VALID,0,VALID,72.8112,VALID,135.698,VALID,22.3508,VALID,87,VALID,0.798437,
2016-02-26, 09:15:04,VALID,920.927,VALID,0,VALID,73.2458,VALID,132.582,VALID,22.333,VALID,96,VALID,0.183984,
2016-02-26, 09:16:04,VALID,920.959,VALID,0,VALID,72.9332,VALID,126.995,VALID,22.255,VALID,96,VALID,2.25117,
2016-02-26, 09:17:04,VALID,920.942,VALID,0,VALID,72.4911,VALID,127.64,VALID,22.1964,VALID,143,VALID,2.03437,
2016-02-26, 09:18:04,VALID,920.899,VALID,0,VALID,73.0247,VALID,129.467,VALID,22.1574,VALID,137,VALID,2.21914,
2016-02-26, 09:19:04,VALID,920.953,VALID,0,VALID,73.627,VALID,135.054,VALID,22.1574,VALID,100,VALID,1.74414,
2016-02-26, 09:20:04,VALID,920.941,VALID,0,VALID,74.0767,VALID,147.087,VALID,22.1574,VALID,94,VALID,1.04805,
2016-02-26, 09:21:04,VALID,920.904,VALID,0,VALID,74.6561,VALID,159.658,VALID,22.1379,VALID,106,VALID,0.338672,
2016-02-26, 09:22:04,VALID,920.962,VALID,0,VALID,72.9561,VALID,165.782,VALID,22.0989,VALID,122,VALID,1.96719,
2016-02-26, 09:23:04,VALID,920.907,VALID,0,VALID,74.1149,VALID,162.021,VALID,22.0794,VALID,128,VALID,1.32734,
2016-02-26, 09:24:04,VALID,920.916,VALID,0,VALID,72.9866,VALID,155.252,VALID,22.0989,VALID,117,VALID,2.77695,
2016-02-26, 09:25:04,VALID,920.906,VALID,0,VALID,74.6256,VALID,152.459,VALID,22.1379,VALID,64,VALID,1.64961,
2016-02-26, 09:26:04,VALID,920.92,VALID,0,VALID,72.735,VALID,137.417,VALID,22.1574,VALID,67,VALID,2.63672,
2016-02-26, 09:27:04,VALID,920.927,VALID,0,VALID,73.1314,VALID,126.888,VALID,22.1786,VALID,119,VALID,0.657812,
2016-02-26, 09:28:04,VALID,920.957,VALID,0,VALID,73.9395,VALID,132.153,VALID,22.1769,VALID,117,VALID,1.02383,
2016-02-26, 09:29:04,VALID,920.932,VALID,0,VALID,73.7565,VALID,159.335,VALID,22.1769,VALID,82,VALID,1.57734,
2016-02-26, 09:30:04,VALID,920.938,VALID,0,VALID,73.3982,VALID,192.32,VALID,22.1574,VALID,46,VALID,2.22539,
2016-02-26, 09:31:04,VALID,920.991,VALID,0,VALID,74.5875,VALID,241.85,VALID,22.1964,VALID,75,VALID,0.664453,
2016-02-26, 09:32:04,VALID,920.958,VALID,0,VALID,72.6893,VALID,606.183,VALID,22.1964,VALID,94,VALID,2.72617,
2016-02-26, 09:33:04,VALID,920.951,VALID,0,VALID,73.9776,VALID,725.658,VALID,22.255,VALID,84,VALID,1.09805,
2016-02-26, 09:34:04,VALID,920.929,VALID,0,VALID,73.6803,VALID,210.155,VALID,22.3703,VALID,128,VALID,1.50039,
2016-02-26, 09:35:04,VALID,920.929,VALID,0,VALID,73.5736,VALID,223.478,VALID,22.5086,VALID,104,VALID,0.971094,
2016-02-26, 09:36:04,VALID,920.899,VALID,0,VALID,71.9955,VALID,273.438,VALID,22.5672,VALID,87,VALID,0.00585938,
2016-02-26, 09:37:04,VALID,920.952,VALID,0,VALID,72.5444,VALID,345.961,VALID,22.6452,VALID,98,VALID,1.02617,
2016-02-26, 09:38:04,VALID,920.874,VALID,0,VALID,70.4175,VALID,381.524,VALID,22.6843,VALID,127,VALID,2.32813,
2016-02-26, 09:39:04,VALID,920.889,VALID,0,VALID,71.2256,VALID,763.477,VALID,22.7623,VALID,75,VALID,1.50547,
2016-02-26, 09:40:04,VALID,920.861,VALID,0,VALID,72.2242,VALID,671.937,VALID,22.9753,VALID,98,VALID,1.20664,
2016-02-26, 09:41:04,VALID,920.895,VALID,0,VALID,71.4848,VALID,325.547,VALID,23.2485,VALID,98,VALID,0.158594,
2016-02-26, 09:42:04,VALID,920.873,VALID,0,VALID,70.5852,VALID,812.577,VALID,23.3851,VALID,67,VALID,1.75391,
2016-02-26, 09:43:04,VALID,920.844,VALID,0,VALID,71.7211,VALID,727.914,VALID,23.465,VALID,88,VALID,1.23906,
2016-02-26, 09:44:04,VALID,920.822,VALID,0,VALID,69.1444,VALID,722.219,VALID,23.465,VALID,131,VALID,1.26758,
2016-02-26, 09:45:04,VALID,920.86,VALID,0,VALID,70.1431,VALID,345.853,VALID,23.5608,VALID,98,VALID,1.23711,
2016-02-26, 09:46:04,VALID,920.888,VALID,0,VALID,69.7771,VALID,371.746,VALID,23.6974,VALID,124,VALID,1.03711,
2016-02-26, 09:47:04,VALID,920.878,VALID,0,VALID,69.2969,VALID,335.861,VALID,23.756,VALID,65,VALID,2.25078,
2016-02-26, 09:48:04,VALID,920.76,VALID,0,VALID,65.0887,VALID,364.978,VALID,23.6974,VALID,51,VALID,3.95273,
2016-02-26, 09:49:04,VALID,920.854,VALID,0,VALID,65.8892,VALID,302.554,VALID,23.4827,VALID,73,VALID,0.374219,
2016-02-26, 09:50:04,VALID,920.898,VALID,0,VALID,67.9094,VALID,800.759,VALID,23.4454,VALID,128,VALID,1.77461,
2016-02-26, 09:51:04,VALID,920.877,VALID,0,VALID,67.5816,VALID,823.966,VALID,23.5803,VALID,103,VALID,0.298047,
2016-02-26, 09:52:04,VALID,920.87,VALID,0,VALID,68.8623,VALID,820.85,VALID,23.795,VALID,111,VALID,0.885938,
2016-02-26, 09:53:04,VALID,920.864,VALID,0,VALID,67.9551,VALID,727.806,VALID,24.1854,VALID,134,VALID,1.07813,
2016-02-26, 09:54:04,VALID,920.869,VALID,0,VALID,66.1408,VALID,311.042,VALID,24.3221,VALID,110,VALID,3.02422,
2016-02-26, 09:55:04,VALID,920.734,VALID,0,VALID,63.9147,VALID,392.268,VALID,24.1659,VALID,144,VALID,2.1293,
2016-02-26, 09:56:04,VALID,920.861,VALID,0,VALID,65.4089,VALID,289.232,VALID,24.0079,VALID,108,VALID,1.75312,
2016-02-26, 09:57:04,VALID,920.804,VALID,0,VALID,66.1026,VALID,846.636,VALID,23.9316,VALID,48,VALID,3.1957,
2016-02-26, 09:58:04,VALID,920.831,VALID,0,VALID,65.4928,VALID,617.679,VALID,24.0292,VALID,65,VALID,0.443359,
2016-02-26, 09:59:04,VALID,920.808,VALID,0,VALID,65.7443,VALID,264.198,VALID,24.2458,VALID,74,VALID,2.01914,
2016-02-26, 10:00:04,VALID,920.837,VALID,0,VALID,66.2017,VALID,211.122,VALID,24.1092,VALID,98,VALID,1.64922,
2016-02-26, 10:01:04,VALID,920.866,VALID,0,VALID,66.1026,VALID,194.254,VALID,23.8926,VALID,85,VALID,3.10313,
2016-02-26, 10:02:04,VALID,920.837,VALID,0,VALID,66.1712,VALID,191.138,VALID,23.6584,VALID,65,VALID,4.03516,
2016-02-26, 10:03:04,VALID,920.79,VALID,0,VALID,67.2538,VALID,199.841,VALID,23.4437,VALID,76,VALID,3.17891,
2016-02-26, 10:04:04,VALID,920.861,VALID,0,VALID,68.687,VALID,225.412,VALID,23.307,VALID,108,VALID,1.40469,
2016-02-26, 10:05:04,VALID,920.873,VALID,0,VALID,69.1444,VALID,240.776,VALID,23.2485,VALID,111,VALID,0.685938,
2016-02-26, 10:06:04,VALID,920.856,VALID,0,VALID,71.0579,VALID,237.445,VALID,23.2485,VALID,68,VALID,0.000390625,
2016-02-26, 10:07:04,VALID,920.791,VALID,0,VALID,68.9386,VALID,232.503,VALID,23.2094,VALID,65,VALID,3.14141,
2016-02-26, 10:08:04,VALID,920.826,VALID,0,VALID,70.913,VALID,244.429,VALID,23.1314,VALID,33,VALID,0.405469,
2016-02-26, 10:09:04,VALID,920.826,VALID,0,VALID,69.556,VALID,273.867,VALID,23.1899,VALID,67,VALID,0,
2016-02-26, 10:10:04,VALID,920.805,VALID,0,VALID,70.7758,VALID,327.373,VALID,23.229,VALID,144,VALID,0.400781,
2016-02-26, 10:11:04,VALID,920.748,VALID,0,VALID,70.0973,VALID,350.151,VALID,23.3461,VALID,155,VALID,0,
2016-02-26, 10:12:04,VALID,920.77,VALID,0,VALID,70.3946,VALID,361.11,VALID,23.4046,VALID,78,VALID,1.61523,
2016-02-26, 10:13:04,VALID,920.678,VALID,0,VALID,68.4964,VALID,350.58,VALID,23.3851,VALID,59,VALID,4.02578,
2016-02-26, 10:14:04,VALID,920.735,VALID,0,VALID,68.9309,VALID,283.43,VALID,23.2875,VALID,61,VALID,2.71172,
2016-02-26, 10:15:04,VALID,920.78,VALID,0,VALID,69.5942,VALID,288.909,VALID,23.2094,VALID,111,VALID,2.22578,
2016-02-26, 10:16:04,VALID,920.756,VALID,0,VALID,69.6704,VALID,291.81,VALID,23.2094,VALID,84,VALID,2.13125,
2016-02-26, 10:17:04,VALID,920.751,VALID,0,VALID,69.0529,VALID,249.049,VALID,23.1509,VALID,95,VALID,2.29805,
2016-02-26, 10:18:04,VALID,920.854,VALID,0,VALID,70.6005,VALID,213.378,VALID,23.1314,VALID,83,VALID,2.25195,
2016-02-26, 10:19:04,VALID,920.78,VALID,0,VALID,70.2803,VALID,184.584,VALID,23.0108,VALID,78,VALID,3.50898,
2016-02-26, 10:20:04,VALID,920.602,VALID,0,VALID,70.2422,VALID,167.823,VALID,22.954,VALID,76,VALID,3.92461,
2016-02-26, 10:21:04,VALID,920.813,VALID,0,VALID,71.6372,VALID,154.715,VALID,22.8564,VALID,82,VALID,1.54023,
2016-02-26, 10:22:04,VALID,920.743,VALID,0,VALID,71.8888,VALID,147.194,VALID,22.7394,VALID,96,VALID,3.59687,
2016-02-26, 10:23:04,VALID,920.777,VALID,0,VALID,70.3489,VALID,147.517,VALID,22.6418,VALID,117,VALID,3.32031,
2016-02-26, 10:24:04,VALID,920.774,VALID,0,VALID,72.1404,VALID,149.558,VALID,22.5637,VALID,100,VALID,1.54453,
2016-02-26, 10:25:04,VALID,920.761,VALID,0,VALID,74.1301,VALID,151.707,VALID,22.5052,VALID,101,VALID,1.68164,
2016-02-26, 10:26:04,VALID,920.817,VALID,0,VALID,72.857,VALID,162.129,VALID,22.484,VALID,104,VALID,1.18359,
2016-02-26, 10:27:04,VALID,920.771,VALID,0,VALID,72.5292,VALID,182.22,VALID,22.4662,VALID,84,VALID,2.51797,
2016-02-26, 10:28:04,VALID,920.822,VALID,0,VALID,71.6906,VALID,211.659,VALID,22.4857,VALID,110,VALID,1.72187,
2016-02-26, 10:29:04,VALID,920.805,VALID,0,VALID,70.7682,VALID,288.587,VALID,22.4857,VALID,117,VALID,3.11016,
2016-02-26, 10:30:04,VALID,920.809,VALID,0,VALID,71.3323,VALID,876.72,VALID,22.5442,VALID,85,VALID,2.14336,
2016-02-26, 10:31:04,VALID,920.819,VALID,0,VALID,72.1861,VALID,936.672,VALID,22.8387,VALID,107,VALID,1.50703,
2016-02-26, 10:32:04,VALID,920.839,VALID,0,VALID,71.2942,VALID,385.177,VALID,23.1882,VALID,69,VALID,2.3457,
2016-02-26, 10:33:04,VALID,920.864,VALID,0,VALID,67.7112,VALID,769.601,VALID,23.4028,VALID,86,VALID,2.93867,
2016-02-26, 10:34:04,VALID,920.772,VALID,0,VALID,67.6654,VALID,996.194,VALID,23.5004,VALID,27,VALID,3.68945,
2016-02-26, 10:35:04,VALID,920.854,VALID,0,VALID,68.1457,VALID,614.134,VALID,23.7737,VALID,116,VALID,1.91992,
2016-02-26, 10:36:04,VALID,920.871,VALID,0,VALID,68.0771,VALID,457.377,VALID,23.8713,VALID,76,VALID,1.43555,
2016-02-26, 10:37:04,VALID,920.789,VALID,0,VALID,68.565,VALID,302.339,VALID,23.8127,VALID,176,VALID,1.74883,
2016-02-26, 10:38:04,VALID,920.77,VALID,0,VALID,66.56,VALID,296,VALID,23.8322,VALID,91,VALID,1.78359,
2016-02-26, 10:39:04,VALID,920.834,VALID,0,VALID,70.265,VALID,485.419,VALID,23.8127,VALID,69,VALID,1.29883,
2016-02-26, 10:40:04,VALID,920.817,VALID,0,VALID,68.6946,VALID,432.558,VALID,23.7346,VALID,83,VALID,2.49688,
2016-02-26, 10:41:04,VALID,920.865,VALID,0,VALID,67.2614,VALID,577.604,VALID,23.6566,VALID,119,VALID,3.68008,
2016-02-26, 10:42:04,VALID,920.897,VALID,0,VALID,69.3807,VALID,402.045,VALID,23.5395,VALID,117,VALID,2.51875,
2016-02-26, 10:43:04,VALID,920.875,VALID,0,VALID,70.9511,VALID,276.339,VALID,23.5199,VALID,149,VALID,0.405469,
2016-02-26, 10:44:04,VALID,920.913,VALID,0,VALID,70.913,VALID,259.47,VALID,23.598,VALID,61,VALID,2.90859,
2016-02-26, 10:45:04,VALID,920.866,VALID,0,VALID,68.2524,VALID,254.098,VALID,23.5395,VALID,103,VALID,0.634375,
2016-02-26, 10:46:04,VALID,920.907,VALID,0,VALID,69.2664,VALID,239.594,VALID,23.5608,VALID,85,VALID,0.538281,
2016-02-26, 10:47:04,VALID,920.849,VALID,0,VALID,68.9995,VALID,221.544,VALID,23.4011,VALID,100,VALID,3.72852,
2016-02-26, 10:48:04,VALID,920.826,VALID,0,VALID,70.7072,VALID,202.741,VALID,23.3443,VALID,105,VALID,1.73828,
2016-02-26, 10:49:04,VALID,920.826,VALID,0,VALID,69.0681,VALID,191.89,VALID,23.2662,VALID,76,VALID,3.21914,
2016-02-26, 10:50:04,VALID,920.848,VALID,0,VALID,68.2524,VALID,192.749,VALID,23.0711,VALID,95,VALID,3.76953,
2016-02-26, 10:51:04,VALID,920.843,VALID,0,VALID,69.9448,VALID,186.518,VALID,22.993,VALID,121,VALID,2.45469,
2016-02-26, 10:52:04,VALID,920.821,VALID,0,VALID,72.4072,VALID,176.633,VALID,22.9735,VALID,93,VALID,1.62852,
2016-02-26, 10:53:04,VALID,920.771,VALID,0,VALID,69.1215,VALID,167.393,VALID,22.9753,VALID,107,VALID,2.53437,
2016-02-26, 10:54:04,VALID,920.815,VALID,0,VALID,70.57,VALID,165.03,VALID,22.9345,VALID,40,VALID,3.3543,
2016-02-26, 10:55:04,VALID,920.836,VALID,0,VALID,70.5318,VALID,170.187,VALID,22.9345,VALID,74,VALID,3.42305,
2016-02-26, 10:56:04,VALID,920.838,VALID,0,VALID,69.4569,VALID,176.311,VALID,22.8759,VALID,100,VALID,3.35313,
2016-02-26, 10:57:04,VALID,920.726,VALID,0,VALID,70.4937,VALID,179.749,VALID,22.8564,VALID,84,VALID,2.64531,
2016-02-26, 10:58:04,VALID,920.804,VALID,0,VALID,71.3018,VALID,172.336,VALID,22.8191,VALID,72,VALID,3.52656,
2016-02-26, 10:59:04,VALID,920.831,VALID,0,VALID,71.5153,VALID,162.988,VALID,22.7589,VALID,92,VALID,2.06133,
2016-02-26, 11:00:04,VALID,920.789,VALID,0,VALID,71.6525,VALID,166.964,VALID,22.7394,VALID,92,VALID,2.14492,
2016-02-26, 11:01:04,VALID,920.791,VALID,0,VALID,71.1951,VALID,179.856,VALID,22.7198,VALID,80,VALID,1.90781,
2016-02-26, 11:02:04,VALID,920.791,VALID,0,VALID,71.0426,VALID,190.386,VALID,22.6808,VALID,129,VALID,4.19805,
2016-02-26, 11:03:04,VALID,920.8,VALID,0,VALID,72.2852,VALID,191.997,VALID,22.6418,VALID,104,VALID,1.71875,
2016-02-26, 11:04:04,VALID,920.814,VALID,0,VALID,72.1404,VALID,192.535,VALID,22.624,VALID,68,VALID,1.53125,
2016-02-26, 11:05:04,VALID,920.779,VALID,0,VALID,70.631,VALID,194.576,VALID,22.6435,VALID,71,VALID,4.2875,
2016-02-26, 11:06:04,VALID,920.829,VALID,0,VALID,71.5076,VALID,197.477,VALID,22.624,VALID,87,VALID,2.26602,
2016-02-26, 11:07:04,VALID,920.796,VALID,0,VALID,70.6691,VALID,199.626,VALID,22.6045,VALID,117,VALID,4.23867,
2016-02-26, 11:08:04,VALID,920.755,VALID,0,VALID,70.1126,VALID,202.312,VALID,22.5867,VALID,75,VALID,2.89102,
2016-02-26, 11:09:04,VALID,920.81,VALID,0,VALID,71.7211,VALID,207.576,VALID,22.6045,VALID,72,VALID,2.67109,
2016-02-26, 11:10:04,VALID,920.767,VALID,0,VALID,71.8888,VALID,215.097,VALID,22.6062,VALID,88,VALID,3.79023,
2016-02-26, 11:11:04,VALID,920.787,VALID,0,VALID,71.8659,VALID,218.213,VALID,22.5867,VALID,73,VALID,2.81406,
2016-02-26, 11:12:04,VALID,920.753,VALID,0,VALID,72.3767,VALID,214.99,VALID,22.6062,VALID,108,VALID,2.05195,
2016-02-26, 11:13:04,VALID,920.802,VALID,0,VALID,72.8112,VALID,212.089,VALID,22.6062,VALID,81,VALID,1.44922,
2016-02-26, 11:14:04,VALID,920.779,VALID,0,VALID,73.3449,VALID,217.461,VALID,22.6257,VALID,63,VALID,1.80039,
2016-02-26, 11:15:04,VALID,920.73,VALID,0,VALID,70.6538,VALID,221.006,VALID,22.5867,VALID,127,VALID,2.78281,
2016-02-26, 11:16:04,VALID,920.745,VALID,0,VALID,72.1023,VALID,214.775,VALID,22.5867,VALID,98,VALID,3.02227,
2016-02-26, 11:17:04,VALID,920.736,VALID,0,VALID,73.0095,VALID,213.271,VALID,22.5867,VALID,104,VALID,1.24336,
2016-02-26, 11:18:04,VALID,920.765,VALID,0,VALID,72.6207,VALID,221.006,VALID,22.6257,VALID,128,VALID,1.12227,
2016-02-26, 11:19:04,VALID,920.7,VALID,0,VALID,72.6435,VALID,229.924,VALID,22.6045,VALID,83,VALID,3.12812,
2016-02-26, 11:20:04,VALID,920.704,VALID,0,VALID,72.3691,VALID,232.18,VALID,22.6045,VALID,96,VALID,2.94648,
2016-02-26, 11:21:04,VALID,920.685,VALID,0,VALID,71.439,VALID,236.263,VALID,22.624,VALID,87,VALID,2.45508,
2016-02-26, 11:22:04,VALID,920.739,VALID,0,VALID,71.9879,VALID,245.073,VALID,22.6435,VALID,70,VALID,2.79766,
2016-02-26, 11:23:04,VALID,920.565,VALID,0,VALID,71.2942,VALID,243.891,VALID,22.6435,VALID,91,VALID,3.37305,
2016-02-26, 11:24:04,VALID,920.629,VALID,0,VALID,70.913,VALID,233.47,VALID,22.663,VALID,79,VALID,2.52422,
2016-02-26, 11:25:04,VALID,920.596,VALID,0,VALID,71.1189,VALID,221.759,VALID,22.6808,VALID,115,VALID,2.86875,
2016-02-26, 11:26:04,VALID,920.658,VALID,0,VALID,71.2256,VALID,215.742,VALID,22.6613,VALID,114,VALID,4.21562,
2016-02-26, 11:27:04,VALID,920.571,VALID,0,VALID,71.2637,VALID,217.246,VALID,22.6613,VALID,91,VALID,3.34492,
2016-02-26, 11:28:04,VALID,920.672,VALID,0,VALID,71.9879,VALID,242.602,VALID,22.7021,VALID,77,VALID,1.45469,
2016-02-26, 11:29:04,VALID,920.676,VALID,0,VALID,70.8368,VALID,263.338,VALID,22.7021,VALID,150,VALID,3.04023,